UAL1131 KIAH-KMAF

Flight info

Callsign UAL1131
Flight time 1h 12m
Altitude 34000
Route PITZZ5 CRGER JCT SJT MAF
Aircraft B738/M-SDE2E3FGHIRWXY/LB1

Departure

Time 2026-04-14 15:24
Airport George Bush Intercontinental Airport (KIAH)

Arrival

Time 2026-04-14 16:36
Airport Midland International Air and Space Port (KMAF)
Time Latitude Longitude Altitude Speed Heading
2026-04-14 14:54 29.98478 -95.33164 100 ft 0 kts 276°
2026-04-14 15:08 29.98476 -95.33146 91 ft 3 kts 276°
2026-04-14 15:08 29.98474 -95.33124 100 ft 3 kts 276°
2026-04-14 15:08 29.98472 -95.33100 100 ft 3 kts 276°
2026-04-14 15:09 29.98470 -95.33077 98 ft 3 kts 276°
2026-04-14 15:09 29.98468 -95.33056 98 ft 3 kts 268°
2026-04-14 15:09 29.98472 -95.33038 98 ft 3 kts 218°
2026-04-14 15:09 29.98489 -95.33028 99 ft 3 kts 191°
2026-04-14 15:10 29.98502 -95.33026 99 ft 1 kts 179°
2026-04-14 15:10 29.98503 -95.33026 99 ft 1 kts 179°
2026-04-14 15:12 29.98489 -95.33026 99 ft 3 kts 180°
2026-04-14 15:12 29.98483 -95.33026 100 ft 0 kts 180°
2026-04-14 15:13 29.98479 -95.33026 99 ft 2 kts 179°
2026-04-14 15:13 29.98451 -95.33025 98 ft 8 kts 179°
2026-04-14 15:13 29.98385 -95.33025 100 ft 10 kts 180°
2026-04-14 15:14 29.98321 -95.33029 100 ft 8 kts 194°
2026-04-14 15:14 29.98300 -95.33072 100 ft 7 kts 271°
2026-04-14 15:14 29.98301 -95.33134 100 ft 9 kts 270°
2026-04-14 15:14 29.98301 -95.33211 101 ft 11 kts 270°
2026-04-14 15:15 29.98301 -95.33311 101 ft 14 kts 270°
2026-04-14 15:15 29.98301 -95.33434 101 ft 16 kts 270°
2026-04-14 15:15 29.98305 -95.33571 101 ft 18 kts 275°
2026-04-14 15:15 29.98315 -95.33710 100 ft 17 kts 275°
2026-04-14 15:16 29.98318 -95.33840 100 ft 16 kts 269°
2026-04-14 15:16 29.98321 -95.33968 100 ft 16 kts 279°
2026-04-14 15:16 29.98368 -95.34082 99 ft 15 kts 295°
2026-04-14 15:16 29.98376 -95.34198 99 ft 15 kts 269°
2026-04-14 15:17 29.98378 -95.34332 99 ft 18 kts 271°
2026-04-14 15:17 29.98385 -95.34479 98 ft 18 kts 269°
2026-04-14 15:17 29.98384 -95.34618 98 ft 17 kts 269°
2026-04-14 15:17 29.98384 -95.34746 98 ft 16 kts 270°
2026-04-14 15:18 29.98384 -95.34889 98 ft 20 kts 270°
2026-04-14 15:18 29.98384 -95.35051 98 ft 20 kts 271°
2026-04-14 15:18 29.98395 -95.35199 100 ft 19 kts 298°
2026-04-14 15:18 29.98514 -95.35283 100 ft 21 kts 332°
2026-04-14 15:19 29.98646 -95.35364 98 ft 22 kts 332°
2026-04-14 15:19 29.98777 -95.35444 99 ft 19 kts 332°
2026-04-14 15:19 29.98808 -95.35542 98 ft 14 kts 243°
2026-04-14 15:19 29.98769 -95.35626 99 ft 8 kts 242°
2026-04-14 15:20 29.98748 -95.35673 101 ft 5 kts 242°
2026-04-14 15:20 29.98743 -95.35684 101 ft 0 kts 242°
2026-04-14 15:20 29.98735 -95.35700 102 ft 4 kts 242°
2026-04-14 15:20 29.98716 -95.35740 103 ft 3 kts 202°
2026-04-14 15:21 29.98704 -95.35735 102 ft 1 kts 154°
2026-04-14 15:23 29.98640 -95.35696 102 ft 44 kts 152°
2026-04-14 15:23 29.98092 -95.35361 99 ft 131 kts 152°
2026-04-14 15:23 29.97097 -95.34753 464 ft 179 kts 153°
2026-04-14 15:24 29.95962 -95.34056 1405 ft 193 kts 147°
2026-04-14 15:24 29.95151 -95.32840 2544 ft 195 kts 113°
2026-04-14 15:24 29.95008 -95.31206 3243 ft 222 kts 86°
2026-04-14 15:24 29.95592 -95.29386 3381 ft 258 kts 57°
2026-04-14 15:25 29.96914 -95.28073 4226 ft 254 kts 32°
2026-04-14 15:25 29.98670 -95.27322 4328 ft 284 kts
2026-04-14 15:25 30.00529 -95.27521 5451 ft 260 kts 348°
2026-04-14 15:25 30.02283 -95.27968 6029 ft 268 kts 345°
2026-04-14 15:26 30.04100 -95.28904 5464 ft 314 kts 322°
2026-04-14 15:26 30.05698 -95.30977 4496 ft 351 kts 293°
2026-04-14 15:26 30.06475 -95.33481 6305 ft 319 kts 278°
2026-04-14 15:26 30.06755 -95.35950 7378 ft 303 kts 270°
2026-04-14 15:27 30.06806 -95.38302 8400 ft 291 kts 268°
2026-04-14 15:27 30.06795 -95.40631 9286 ft 289 kts 266°
2026-04-14 15:27 30.06777 -95.42959 10044 ft 291 kts 268°
2026-04-14 15:27 30.06764 -95.45352 10419 ft 308 kts 268°
2026-04-14 15:28 30.06759 -95.47923 10577 ft 330 kts 269°
2026-04-14 15:28 30.06762 -95.50625 10727 ft 350 kts 269°
2026-04-14 15:28 30.06773 -95.53511 11081 ft 362 kts 269°
2026-04-14 15:28 30.06783 -95.55447 11442 ft 365 kts 270°
2026-04-14 15:29 30.06803 -95.58390 12057 ft 368 kts 270°
2026-04-14 15:29 30.06824 -95.61354 12764 ft 370 kts 270°
2026-04-14 15:29 30.06846 -95.64346 13590 ft 373 kts 270°
2026-04-14 15:29 30.06867 -95.67341 14526 ft 376 kts 270°
2026-04-14 15:30 30.06888 -95.70429 14997 ft 390 kts 270°
2026-04-14 15:30 30.06907 -95.73557 15584 ft 398 kts 270°
2026-04-14 15:30 30.06927 -95.76767 16493 ft 396 kts 269°
2026-04-14 15:30 30.06946 -95.79945 17405 ft 395 kts 269°
2026-04-14 15:31 30.06964 -95.83155 18106 ft 399 kts 269°
2026-04-14 15:31 30.06980 -95.86339 18630 ft 406 kts 269°
2026-04-14 15:31 30.06995 -95.89640 19131 ft 411 kts 269°
2026-04-14 15:31 30.07010 -95.92946 19778 ft 412 kts 269°
2026-04-14 15:32 30.07025 -95.96250 20408 ft 411 kts 269°
2026-04-14 15:32 30.07040 -95.99562 20993 ft 413 kts 269°
2026-04-14 15:32 30.07053 -96.02883 21531 ft 415 kts 269°
2026-04-14 15:32 30.07083 -96.06188 22046 ft 417 kts 271°
2026-04-14 15:33 30.07409 -96.09541 22314 ft 426 kts 280°
2026-04-14 15:33 30.08171 -96.12905 22511 ft 435 kts 283°
2026-04-14 15:33 30.08938 -96.16276 23237 ft 427 kts 279°
2026-04-14 15:33 30.09300 -96.19623 24222 ft 412 kts 272°
2026-04-14 15:34 30.09562 -96.22890 24877 ft 409 kts 276°
2026-04-14 15:34 30.10076 -96.26096 25172 ft 414 kts 279°
2026-04-14 15:34 30.10691 -96.29380 25428 ft 420 kts 279°
2026-04-14 15:34 30.11307 -96.32702 25677 ft 424 kts 279°
2026-04-14 15:35 30.11894 -96.36071 25780 ft 432 kts 278°
2026-04-14 15:35 30.12446 -96.39526 25823 ft 440 kts 278°
2026-04-14 15:35 30.12970 -96.42935 26503 ft 430 kts 277°
2026-04-14 15:35 30.13445 -96.46328 27070 ft 426 kts 276°
2026-04-14 15:36 30.13877 -96.49731 27410 ft 428 kts 275°
2026-04-14 15:36 30.14315 -96.53153 27658 ft 432 kts 276°
2026-04-14 15:36 30.14781 -96.56597 27909 ft 435 kts 276°
2026-04-14 15:36 30.15278 -96.60077 28211 ft 437 kts 276°
2026-04-14 15:37 30.15786 -96.63503 28534 ft 439 kts 277°
2026-04-14 15:37 30.16312 -96.66980 28948 ft 438 kts 277°
2026-04-14 15:37 30.16839 -96.70437 29431 ft 436 kts 277°
2026-04-14 15:37 30.17364 -96.73888 29883 ft 435 kts 276°
2026-04-14 15:38 30.17886 -96.77332 30270 ft 435 kts 276°
2026-04-14 15:38 30.18405 -96.80777 30631 ft 434 kts 276°
2026-04-14 15:38 30.18922 -96.84214 31034 ft 432 kts 276°
2026-04-14 15:38 30.19427 -96.87576 31595 ft 427 kts 276°
2026-04-14 15:39 30.19930 -96.90930 32090 ft 423 kts 276°
2026-04-14 15:39 30.20430 -96.94281 32403 ft 423 kts 276°
2026-04-14 15:39 30.20929 -96.97642 32653 ft 425 kts 276°
2026-04-14 15:39 30.21432 -97.01018 33007 ft 424 kts 276°
2026-04-14 15:40 30.21931 -97.04370 33480 ft 420 kts 276°
2026-04-14 15:40 30.22425 -97.07696 33868 ft 418 kts 276°
2026-04-14 15:40 30.22918 -97.11012 34142 ft 418 kts 276°
2026-04-14 15:40 30.23409 -97.14309 34113 ft 423 kts 276°
2026-04-14 15:41 30.24409 -97.21025 34017 ft 422 kts 276°
2026-04-14 15:41 30.25397 -97.27659 34020 ft 416 kts 276°
2026-04-14 15:42 30.26373 -97.34266 34042 ft 416 kts 276°
2026-04-14 15:42 30.27342 -97.40845 34045 ft 417 kts 276°
2026-04-14 15:43 30.28314 -97.47475 34038 ft 418 kts 276°
2026-04-14 15:43 30.29280 -97.54076 34110 ft 418 kts 276°
2026-04-14 15:44 30.30248 -97.60724 34117 ft 418 kts 275°
2026-04-14 15:44 30.31219 -97.67417 34114 ft 426 kts 275°
2026-04-14 15:45 30.32247 -97.74240 34104 ft 433 kts 277°
2026-04-14 15:45 30.33628 -97.81005 34116 ft 434 kts 280°
2026-04-14 15:46 30.35143 -97.87791 34141 ft 434 kts 280°
2026-04-14 15:46 30.36612 -97.94577 34149 ft 434 kts 279°
2026-04-14 15:47 30.38034 -98.01322 34160 ft 433 kts 279°
2026-04-14 15:47 30.39453 -98.08112 34143 ft 432 kts 279°
2026-04-14 15:48 30.40858 -98.14842 34131 ft 431 kts 279°
2026-04-14 15:48 30.42266 -98.21605 34102 ft 431 kts 279°
2026-04-14 15:49 30.43671 -98.28366 34114 ft 431 kts 279°
2026-04-14 15:49 30.45042 -98.35092 34143 ft 429 kts 276°
2026-04-14 15:50 30.45912 -98.41908 34141 ft 425 kts 272°
2026-04-14 15:50 30.46527 -98.48754 34060 ft 425 kts 271°
2026-04-14 15:51 30.47172 -98.55569 34049 ft 425 kts 272°
2026-04-14 15:51 30.47862 -98.62346 34047 ft 425 kts 272°
2026-04-14 15:52 30.48573 -98.69150 34061 ft 425 kts 272°
2026-04-14 15:52 30.49286 -98.75992 34067 ft 428 kts 272°
2026-04-14 15:53 30.49992 -98.82820 34059 ft 429 kts 272°
2026-04-14 15:53 30.50702 -98.89718 34036 ft 430 kts 272°
2026-04-14 15:54 30.51751 -98.99994 34030 ft 430 kts 272°
2026-04-14 15:55 30.52451 -99.06890 34032 ft 430 kts 272°
2026-04-14 15:55 30.53147 -99.13785 34028 ft 429 kts 272°
2026-04-14 15:56 30.53835 -99.20639 34021 ft 429 kts 272°
2026-04-14 15:56 30.54522 -99.27526 34012 ft 429 kts 272°
2026-04-14 15:57 30.55201 -99.34367 34019 ft 428 kts 272°
2026-04-14 15:57 30.55879 -99.41228 34039 ft 428 kts 271°
2026-04-14 15:58 30.56553 -99.48091 34075 ft 428 kts 271°
2026-04-14 15:58 30.57224 -99.54963 34078 ft 427 kts 271°
2026-04-14 15:59 30.57885 -99.61770 34108 ft 426 kts 271°
2026-04-14 15:59 30.58547 -99.68621 34115 ft 426 kts 271°
2026-04-14 16:00 30.59207 -99.75471 34136 ft 426 kts 272°
2026-04-14 16:00 30.60816 -99.82135 34036 ft 449 kts 296°
2026-04-14 16:00 30.62960 -99.84860 34118 ft 469 kts 316°
2026-04-14 16:01 30.65811 -99.86816 34159 ft 478 kts 324°
2026-04-14 16:01 30.71519 -99.90753 34071 ft 473 kts 317°
2026-04-14 16:02 30.76768 -99.95247 34025 ft 466 kts 315°
2026-04-14 16:02 30.79303 -99.97434 34040 ft 439 kts 315°
2026-04-14 16:02 30.81709 -99.99460 34008 ft 411 kts 315°
2026-04-14 16:02 30.83964 -100.01324 34026 ft 383 kts 315°
2026-04-14 16:03 30.86050 -100.03032 34024 ft 357 kts 315°
2026-04-14 16:03 30.90026 -100.06307 34004 ft 344 kts 314°
2026-04-14 16:04 30.93878 -100.09487 33998 ft 333 kts 314°
2026-04-14 16:04 30.97600 -100.12551 34000 ft 324 kts 313°
2026-04-14 16:05 31.01249 -100.15553 34011 ft 316 kts 313°
2026-04-14 16:05 31.04785 -100.18462 34015 ft 309 kts 313°
2026-04-14 16:06 31.08267 -100.21334 34005 ft 303 kts 314°
2026-04-14 16:06 31.09987 -100.22752 34018 ft 300 kts 314°
2026-04-14 16:06 31.11683 -100.24149 34009 ft 297 kts 314°
2026-04-14 16:06 31.13350 -100.25522 34002 ft 295 kts 314°
2026-04-14 16:07 31.15022 -100.26900 34019 ft 293 kts 314°
2026-04-14 16:07 31.16683 -100.28270 34003 ft 291 kts 314°
2026-04-14 16:07 31.18325 -100.29624 34031 ft 287 kts 314°
2026-04-14 16:07 31.19953 -100.30969 33988 ft 287 kts 314°
2026-04-14 16:08 31.21605 -100.32340 33482 ft 295 kts 314°
2026-04-14 16:08 31.23311 -100.33761 32463 ft 309 kts 314°
2026-04-14 16:08 31.25129 -100.35279 31199 ft 333 kts 315°
2026-04-14 16:08 31.27082 -100.36902 30069 ft 354 kts 315°
2026-04-14 16:09 31.29156 -100.38616 28657 ft 377 kts 316°
2026-04-14 16:09 31.31316 -100.40391 28232 ft 381 kts 317°
2026-04-14 16:09 31.33522 -100.42215 27683 ft 403 kts 317°
2026-04-14 16:09 31.35791 -100.44225 27198 ft 408 kts 312°
2026-04-14 16:10 31.37718 -100.46617 26650 ft 397 kts 297°
2026-04-14 16:10 31.38999 -100.49383 26259 ft 384 kts 287°
2026-04-14 16:10 31.40025 -100.52265 25758 ft 381 kts 285°
2026-04-14 16:10 31.40982 -100.55145 25315 ft 379 kts 285°
2026-04-14 16:11 31.41970 -100.58028 25156 ft 390 kts 286°
2026-04-14 16:11 31.43082 -100.61036 24911 ft 415 kts 288°
2026-04-14 16:11 31.44303 -100.64194 24697 ft 434 kts 289°
2026-04-14 16:11 31.45560 -100.67417 24472 ft 444 kts 289°
2026-04-14 16:12 31.46837 -100.70706 24240 ft 441 kts 289°
2026-04-14 16:12 31.48096 -100.73982 24066 ft 436 kts 289°
2026-04-14 16:12 31.49314 -100.77194 24040 ft 436 kts 288°
2026-04-14 16:12 31.50533 -100.80445 24012 ft 435 kts 288°
2026-04-14 16:13 31.51747 -100.83709 24005 ft 435 kts 288°
2026-04-14 16:13 31.52956 -100.86975 23981 ft 435 kts 288°
2026-04-14 16:13 31.54146 -100.90196 23993 ft 435 kts 288°
2026-04-14 16:13 31.55352 -100.93463 23973 ft 435 kts 288°
2026-04-14 16:14 31.56555 -100.96721 23981 ft 435 kts 288°
2026-04-14 16:14 31.57352 -100.98882 24000 ft 434 kts 288°
2026-04-14 16:14 31.58552 -101.02138 23972 ft 435 kts 288°
2026-04-14 16:14 31.60145 -101.06463 23975 ft 435 kts 288°
2026-04-14 16:15 31.60942 -101.08628 23976 ft 435 kts 288°
2026-04-14 16:15 31.62144 -101.11898 23653 ft 433 kts 288°
2026-04-14 16:15 31.63333 -101.15127 23213 ft 426 kts 288°
2026-04-14 16:15 31.64500 -101.18299 22649 ft 421 kts 288°
2026-04-14 16:16 31.65653 -101.21433 22223 ft 412 kts 288°
2026-04-14 16:16 31.66765 -101.24461 21706 ft 406 kts 288°
2026-04-14 16:16 31.67872 -101.27483 21254 ft 399 kts 288°
2026-04-14 16:16 31.68959 -101.30452 20794 ft 392 kts 288°
2026-04-14 16:17 31.70030 -101.33385 20346 ft 386 kts 288°
2026-04-14 16:17 31.71079 -101.36258 19909 ft 381 kts 288°
2026-04-14 16:17 31.72104 -101.39070 19478 ft 376 kts 288°
2026-04-14 16:17 31.73128 -101.41881 19052 ft 371 kts 288°
2026-04-14 16:18 31.74137 -101.44653 18634 ft 366 kts 288°
2026-04-14 16:18 31.75135 -101.47399 18212 ft 362 kts 288°
2026-04-14 16:18 31.76120 -101.50108 17742 ft 358 kts 288°
2026-04-14 16:18 31.77094 -101.52792 17286 ft 354 kts 288°
2026-04-14 16:19 31.78047 -101.55417 16863 ft 351 kts 288°
2026-04-14 16:19 31.79001 -101.58048 16419 ft 348 kts 288°
2026-04-14 16:19 31.79946 -101.60655 15995 ft 345 kts 288°
2026-04-14 16:19 31.80884 -101.63248 15584 ft 342 kts 288°
2026-04-14 16:20 31.81813 -101.65813 15187 ft 340 kts 287°
2026-04-14 16:20 31.82723 -101.68332 14803 ft 339 kts 287°
2026-04-14 16:20 31.83648 -101.70893 14362 ft 339 kts 287°
2026-04-14 16:20 31.84569 -101.73446 13969 ft 338 kts 288°
2026-04-14 16:21 31.85487 -101.75994 13508 ft 339 kts 288°
2026-04-14 16:21 31.86405 -101.78543 13117 ft 337 kts 288°
2026-04-14 16:21 31.87307 -101.81048 12718 ft 335 kts 288°
2026-04-14 16:21 31.88214 -101.83568 12332 ft 333 kts 289°
2026-04-14 16:22 31.89116 -101.86075 11942 ft 332 kts 289°
2026-04-14 16:22 31.90013 -101.88568 11555 ft 330 kts 289°
2026-04-14 16:22 31.90907 -101.91055 11180 ft 328 kts 290°
2026-04-14 16:22 31.91792 -101.93522 10803 ft 327 kts 290°
2026-04-14 16:23 31.92674 -101.95979 10509 ft 322 kts 290°
2026-04-14 16:23 31.93522 -101.98342 10382 ft 313 kts 290°
2026-04-14 16:23 31.94633 -102.00523 10164 ft 312 kts 312°
2026-04-14 16:23 31.96408 -102.01923 10145 ft 307 kts 334°
2026-04-14 16:24 31.98405 -102.02715 10079 ft 298 kts 341°
2026-04-14 16:24 32.00373 -102.03372 9953 ft 290 kts 341°
2026-04-14 16:24 32.02335 -102.03898 9753 ft 286 kts 346°
2026-04-14 16:24 32.04249 -102.04338 9739 ft 274 kts 346°
2026-04-14 16:25 32.06110 -102.04735 9586 ft 273 kts 345°
2026-04-14 16:25 32.07983 -102.05122 9331 ft 281 kts 345°
2026-04-14 16:25 32.09931 -102.05524 9076 ft 287 kts 345°
2026-04-14 16:25 32.11923 -102.05942 8672 ft 293 kts 346°
2026-04-14 16:26 32.13934 -102.06370 8158 ft 294 kts 346°
2026-04-14 16:26 32.15951 -102.06805 7684 ft 294 kts 346°
2026-04-14 16:26 32.17942 -102.07240 7345 ft 288 kts 345°
2026-04-14 16:26 32.19905 -102.07665 6963 ft 285 kts 347°
2026-04-14 16:27 32.21870 -102.07903 6599 ft 283 kts 353°
2026-04-14 16:27 32.23812 -102.07985 6296 ft 274 kts 355°
2026-04-14 16:27 32.25662 -102.08038 6024 ft 265 kts 352°
2026-04-14 16:27 32.27426 -102.08544 5747 ft 259 kts 329°
2026-04-14 16:28 32.28716 -102.09901 5509 ft 241 kts 298°
2026-04-14 16:28 32.29198 -102.11714 5277 ft 227 kts 270°
2026-04-14 16:28 32.29184 -102.13534 5094 ft 219 kts 266°
2026-04-14 16:28 32.29115 -102.15345 5056 ft 222 kts 265°
2026-04-14 16:29 32.29047 -102.17150 5008 ft 218 kts 264°
2026-04-14 16:29 32.28945 -102.18948 4969 ft 221 kts 264°
2026-04-14 16:29 32.28562 -102.20655 4957 ft 212 kts 235°
2026-04-14 16:29 32.27410 -102.21607 4994 ft 204 kts 193°
2026-04-14 16:30 32.26015 -102.21555 5020 ft 200 kts 182°
2026-04-14 16:30 32.24641 -102.21726 5021 ft 198 kts 194°
2026-04-14 16:30 32.23288 -102.21986 5000 ft 200 kts 191°
2026-04-14 16:30 32.21901 -102.22152 5011 ft 199 kts 188°
2026-04-14 16:31 32.20524 -102.22292 5017 ft 197 kts 188°
2026-04-14 16:31 32.19169 -102.22438 5020 ft 195 kts 188°
2026-04-14 16:31 32.17815 -102.22593 5029 ft 194 kts 189°
2026-04-14 16:31 32.16462 -102.22679 5023 ft 194 kts 178°
2026-04-14 16:32 32.15108 -102.22527 5069 ft 197 kts 178°
2026-04-14 16:32 32.13769 -102.22371 5051 ft 193 kts 180°
2026-04-14 16:32 32.12447 -102.22234 4918 ft 191 kts 180°
2026-04-14 16:32 32.11150 -102.22103 4881 ft 186 kts 180°
2026-04-14 16:33 32.09869 -102.21971 4836 ft 180 kts 180°
2026-04-14 16:33 32.08637 -102.21844 4751 ft 174 kts 179°
2026-04-14 16:33 32.07441 -102.21722 4759 ft 170 kts 180°
2026-04-14 16:33 32.06284 -102.21603 4673 ft 165 kts 177°
2026-04-14 16:34 32.05159 -102.21487 4598 ft 162 kts 179°
2026-04-14 16:34 32.04035 -102.21372 4467 ft 158 kts 179°
2026-04-14 16:34 32.02962 -102.21262 4317 ft 153 kts 177°
2026-04-14 16:34 32.01907 -102.21155 4098 ft 148 kts 176°
2026-04-14 16:35 32.00891 -102.21049 3949 ft 144 kts 177°
2026-04-14 16:35 31.99909 -102.20967 3774 ft 143 kts 178°
2026-04-14 16:35 31.98882 -102.20841 3580 ft 150 kts 179°
2026-04-14 16:35 31.97854 -102.20756 3416 ft 149 kts 176°
2026-04-14 16:36 31.96812 -102.20649 3119 ft 150 kts 174°
2026-04-14 16:36 31.95785 -102.20538 2885 ft 146 kts 175°
2026-04-14 16:36 31.94861 -102.20440 2868 ft 108 kts 175°
2026-04-14 16:36 31.94322 -102.20388 2866 ft 47 kts 175°
2026-04-14 16:37 31.94127 -102.20382 2864 ft 23 kts 186°
2026-04-14 16:37 31.93978 -102.20438 2865 ft 22 kts 205°
2026-04-14 16:37 31.93847 -102.20513 2865 ft 15 kts 213°
2026-04-14 16:37 31.93773 -102.20563 2867 ft 10 kts 221°
2026-04-14 16:38 31.93775 -102.20634 2867 ft 9 kts 294°
2026-04-14 16:38 31.93797 -102.20688 2866 ft 0 kts 298°